Driggs, ID

11:17 PM MDT on September 19, 2017 (GMT -0600)
Driggs

Weather History for KDIJ - September, 2013

Change the Weather History Date:

Thursday, September 26, 2013

  Actual Average (KJAC) Record (KJAC)
Temperature  
Mean Temperature 36 °F -  
Max Temperature 39 °F 65 °F 81 °F (1987)
Min Temperature 32 °F 28 °F 19 °F (1970)
Degree Days  
Heating Degree Days 30    
Moisture  
Dew Point 32 °F    
Average Humidity 89    
Maximum Humidity 100    
Minimum Humidity 70    
Precipitation  
Precipitation 0.05 in - - ()
Sea Level Pressure  
Sea Level Pressure 29.82 in    
Wind  
Wind Speed 4 mph (West)    
Max Wind Speed 14 mph    
Max Gust Speed -    
Visibility 6 miles    
Events Rain , Snow    
Averages and records for this station are not official NWS values.
T = Trace of Precipitation, MM = Missing Value Source: NWS Daily Summary

Daily Weather History Graph

Daily Weather History Graph

Search for Another Location

Airport or City:

Trip Planner

Search our weather history database for the weather conditions in past years. The results will help you decide how hot, cold, wet, or windy it might be!

Date:

Astronomy

Sep. 26, 2013 Rise Set
Actual Time 7:16 AM MDT 7:13 PM MDT
Civil Twilight 6:47 AM MDT 7:42 PM MDT
Nautical Twilight 6:14 AM MDT 8:15 PM MDT
Astronomical Twilight 5:40 AM MDT 8:49 PM MDT
Moon No Moon Rise 2:21 PM MDT (9/26)
Length of Visible Light 12h 54m
Length of Day
11h 57m
Waning Gibbous, 54% of the Moon is Illuminated
Sep 26
Waning Gibbous
Sep 26
Last Quarter
Oct 4
New
Oct 11
First Quarter
Oct 18
Full

Hourly Weather History & Observations

Time (MDT) Temp. Windchill Dew Point Humidity Pressure Visibility Wind Dir Wind Speed Gust Speed Precip Events Conditions
12:56 AM 32.9 °F 28.5 °F 30.0 °F 89% 29.70 in 10.0 mi SE 4.6 mph - N/A   Scattered Clouds
1:56 AM 32.0 °F 27.5 °F 29.1 °F 89% 29.73 in 10.0 mi SE 4.6 mph - N/A   Partly Cloudy
2:56 AM 32.0 °F 24.8 °F 28.0 °F 85% 29.72 in 10.0 mi East 8.1 mph - N/A   Mostly Cloudy
3:56 AM 34.0 °F 28.8 °F 29.1 °F 82% 29.72 in 10.0 mi East 5.8 mph - N/A   Overcast
4:56 AM 32.9 °F 29.8 °F 30.0 °F 89% 29.75 in 10.0 mi SSE 3.5 mph - N/A   Scattered Clouds
5:56 AM 32.9 °F 29.8 °F 30.0 °F 89% 29.74 in 10.0 mi North 3.5 mph - N/A   Overcast
6:56 AM 32.9 °F - 30.0 °F 89% 29.77 in 10.0 mi Calm Calm - 0.00 in   Overcast
7:07 AM 33.8 °F - 30.2 °F 87% 29.84 in 4.0 mi Calm Calm - 0.00 in Snow Light Snow
7:15 AM 33.8 °F - 30.2 °F 87% 29.84 in 2.5 mi Calm Calm - 0.00 in Snow Light Snow
7:29 AM 33.8 °F - 30.2 °F 87% 29.84 in 1.5 mi Calm Calm - 0.00 in Snow Light Snow
7:34 AM 33.8 °F - 30.2 °F 87% 29.85 in 1.0 mi Calm Calm - 0.00 in Snow Light Snow
7:45 AM 32.0 °F - 30.2 °F 93% 29.85 in 1.2 mi Calm Calm - 0.00 in Snow Light Snow
7:56 AM 32.0 °F - 30.0 °F 92% 29.80 in 1.0 mi Calm Calm - 0.00 in Snow Light Snow
8:03 AM 32.0 °F - 30.2 °F 93% 29.85 in 0.8 mi Calm Calm - 0.00 in Snow Light Snow
8:14 AM 32.0 °F - 30.2 °F 93% 29.85 in 1.0 mi Calm Calm - 0.00 in Snow Light Snow
8:23 AM 32.0 °F - 30.2 °F 93% 29.85 in 1.2 mi Calm Calm - 0.00 in Snow Light Snow
8:30 AM 33.8 °F 30.8 °F 30.2 °F 87% 29.85 in 1.8 mi WSW 3.5 mph - 0.00 in Snow Light Snow
8:56 AM 32.9 °F 29.8 °F 32.0 °F 96% 29.81 in 1.8 mi SW 3.5 mph - 0.00 in Snow Light Snow
9:08 AM 33.8 °F - 32.0 °F 93% 29.85 in 1.0 mi Calm Calm - 0.00 in Snow Light Snow
9:20 AM 33.8 °F - 32.0 °F 93% 29.86 in 1.5 mi Calm Calm - 0.00 in Snow Light Snow
9:34 AM 33.8 °F 30.8 °F 32.0 °F 93% 29.86 in 1.2 mi South 3.5 mph - 0.00 in Snow Light Snow
9:44 AM 33.8 °F 30.8 °F 32.0 °F 93% 29.86 in 1.5 mi SSW 3.5 mph - 0.00 in Snow Light Snow
9:56 AM 32.9 °F 29.8 °F 32.9 °F 100% 29.82 in 1.5 mi SSW 3.5 mph - 0.00 in Snow Light Snow
10:27 AM 33.8 °F 30.8 °F 33.8 °F 100% 29.87 in 2.0 mi South 3.5 mph - 0.02 in Snow Light Snow
10:47 AM 33.8 °F - 33.8 °F 100% 29.87 in 4.0 mi Calm Calm - 0.03 in Snow Light Snow
10:56 AM 34.9 °F - 32.9 °F 92% 29.82 in 2.5 mi Calm Calm - 0.03 in Snow Light Snow
11:08 AM 35.6 °F - 33.8 °F 93% 29.87 in 5.0 mi Calm Calm - 0.00 in Snow Light Snow
11:42 AM 37.4 °F - 33.8 °F 87% 29.87 in 5.0 mi Calm Calm - 0.00 in Snow Light Snow
11:56 AM 36.0 °F - 32.9 °F 89% 29.82 in 8.0 mi Calm Calm - 0.00 in Snow Light Snow
12:21 PM 37.4 °F - 33.8 °F 87% 29.86 in 5.0 mi Calm Calm - 0.00 in Rain Light Rain
12:48 PM 37.4 °F - 32.0 °F 81% 29.87 in 4.0 mi Calm Calm - 0.00 in Snow Light Snow
12:56 PM 37.9 °F 35.5 °F 32.9 °F 82% 29.81 in 7.0 mi Variable 3.5 mph - 0.00 in Snow Light Snow
1:56 PM 39.9 °F 36.7 °F 32.0 °F 73% 29.79 in 10.0 mi Variable 4.6 mph - 0.00 in   Mostly Cloudy
2:37 PM 39.2 °F - 30.2 °F 70% 29.85 in 10.0 mi Calm Calm - N/A   Mostly Cloudy
2:56 PM 39.9 °F 36.7 °F 32.0 °F 73% 29.78 in 10.0 mi West 4.6 mph - N/A   Overcast
3:08 PM 39.2 °F 35.0 °F 32.0 °F 75% 29.85 in 10.0 mi WSW 5.8 mph - N/A   Mostly Cloudy
3:34 PM 39.2 °F 31.2 °F 33.8 °F 81% 29.85 in 7.0 mi NW 13.8 mph - 0.00 in Rain Light Rain
3:56 PM 38.8 °F 31.6 °F 34.9 °F 86% 29.78 in 10.0 mi NNW 11.5 mph - 0.00 in Rain Light Rain
4:56 PM 38.8 °F 33.2 °F 34.9 °F 86% 29.80 in 9.0 mi WNW 8.1 mph - 0.00 in Rain Light Rain
5:56 PM 38.8 °F 31.6 °F 34.9 °F 86% 29.79 in 9.0 mi WNW 11.5 mph - 0.00 in Rain Light Rain
6:56 PM 37.9 °F 30.5 °F 34.9 °F 89% 29.81 in 10.0 mi NW 11.5 mph - 0.01 in   Overcast
7:56 PM 36.9 °F 29.6 °F 32.9 °F 86% 29.82 in 7.0 mi NW 10.4 mph - 0.01 in Rain Light Rain
8:56 PM 34.9 °F 27.7 °F 32.9 °F 92% 29.83 in 9.0 mi NW 9.2 mph - 0.00 in   Overcast
9:23 PM 33.8 °F 26.4 °F 33.8 °F 100% 29.87 in 6.0 mi NW 9.2 mph - 0.00 in   Overcast
9:42 PM 33.8 °F 28.6 °F 33.8 °F 100% 29.87 in 4.0 mi WNW 5.8 mph - 0.00 in   Overcast
9:56 PM 34.0 °F 29.8 °F 32.9 °F 96% 29.84 in 4.0 mi West 4.6 mph - 0.00 in   Overcast
10:36 PM 33.8 °F 29.6 °F 33.8 °F 100% 29.88 in 5.0 mi West 4.6 mph - 0.00 in   Overcast
10:56 PM 34.0 °F 29.8 °F 32.9 °F 96% 29.85 in 10.0 mi SW 4.6 mph - 0.00 in   Overcast
11:56 PM 34.0 °F 31.0 °F 32.9 °F 96% 29.83 in 10.0 mi Variable 3.5 mph - N/A   Overcast